| time (UTC) | temp F | wind direction | speed MPH | gust MPH | rain 1hr in | rain 24hr in | rain mn in | humidity % | barometer mb |
| 20260507051547 | 48 | 261 | 0.0 | 0.0 | 0.00 | 0.00 | 0.00 | 86 | 1016.5 |
| 20260507050044 | 48 | 261 | 0.0 | 0.0 | 0.00 | 0.00 | 0.00 | 86 | 1016.2 |
| 20260507044540 | 48 | 289 | 0.0 | 0.0 | 0.00 | 0.00 | 0.00 | 86 | 1016.1 |
| 20260507043038 | 48 | 288 | 2.0 | 0.0 | 0.00 | 0.00 | 0.00 | 85 | 1015.8 |
| 20260507041549 | 48 | 242 | 0.0 | 0.0 | 0.00 | 0.00 | 0.00 | 86 | 1015.7 |
| 20260507040032 | 48 | 211 | 1.0 | 0.0 | 0.00 | 0.00 | 0.00 | 86 | 1015.3 |
| 20260507034530 | 48 | 211 | 1.0 | 0.0 | 0.00 | 0.00 | 0.00 | 86 | 1015.4 |
| 20260507033033 | 48 | 211 | 3.0 | 0.0 | 0.00 | 0.00 | 0.00 | 87 | 1015.3 |
| 20260507031528 | 48 | 211 | 0.0 | 0.0 | 0.00 | 0.00 | 0.00 | 87 | 1015.1 |
| 20260507030026 | 48 | 217 | 3.0 | 0.0 | 0.00 | 0.00 | 0.00 | 87 | 1015.0 |
| 20260507024524 | 48 | 130 | 0.0 | 0.0 | 0.00 | 0.00 | 0.00 | 87 | 1014.9 |
| 20260507023023 | 48 | 355 | 0.0 | 0.0 | 0.00 | 0.00 | 0.00 | 87 | 1015.0 |
| 20260507021523 | 48 | 355 | 0.0 | 0.0 | 0.00 | 0.00 | 0.00 | 88 | 1015.0 |
| 20260507020022 | 48 | 355 | 0.0 | 0.0 | 0.00 | 0.00 | 0.00 | 88 | 1014.9 |
| 20260507014530 | 48 | 355 | 1.0 | 0.0 | 0.00 | 0.00 | 0.00 | 88 | 1014.7 |
| 20260507013034 | 48 | 355 | 1.0 | 0.0 | 0.00 | 0.00 | 0.00 | 88 | 1014.6 |
| 20260507011531 | 48 | 346 | 1.0 | 0.0 | 0.00 | 0.00 | 0.00 | 88 | 1014.6 |
| 20260507010016 | 48 | 342 | 0.0 | 0.0 | 0.00 | 0.00 | 0.00 | 88 | 1014.4 |
| 20260507004517 | 49 | 342 | 0.0 | 0.0 | 0.00 | 0.00 | 0.00 | 89 | 1014.5 |
| 20260507003013 | 48 | 342 | 0.0 | 0.0 | 0.00 | 0.00 | 0.00 | 89 | 1014.3 |
| 20260507001512 | 48 | 341 | 0.0 | 0.0 | 0.00 | 0.00 | 0.00 | 89 | 1014.1 |
| 20260507000022 | 48 | 341 | 1.0 | 0.0 | 0.00 | 0.00 | 0.00 | 89 | 1014.1 |
| 20260506234508 | 48 | 346 | 0.0 | 0.0 | 0.00 | 0.00 | 0.00 | 90 | 1014.0 |
| 20260506233008 | 49 | 344 | 2.0 | 0.0 | 0.00 | 0.00 | 0.00 | 90 | 1014.0 |
| 20260506231505 | 49 | 329 | 0.0 | 0.0 | 0.00 | 0.00 | 0.00 | 90 | 1013.9 |
| 20260506230002 | 49 | 329 | 1.0 | 0.0 | 0.00 | 0.00 | 0.00 | 90 | 1013.8 |
| 20260506224604 | 49 | 323 | 0.0 | 0.0 | 0.00 | 0.00 | 0.00 | 90 | 1013.7 |
| 20260506223126 | 49 | 325 | 0.0 | 0.0 | 0.00 | 0.00 | 0.00 | 90 | 1013.9 |
| 20260506221603 | 49 | 324 | 1.0 | 0.0 | 0.00 | 0.00 | 0.00 | 90 | 1013.7 |
| 20260506220055 | 49 | 345 | 1.0 | 0.0 | 0.00 | 0.00 | 0.00 | 90 | 1013.7 |
| 20260506214603 | 49 | 344 | 1.0 | 0.0 | 0.00 | 0.00 | 0.55 | 90 | 1013.7 |
| 20260506213051 | 49 | 329 | 0.0 | 0.0 | 0.00 | 0.00 | 0.55 | 89 | 1013.6 |
| 20260506211549 | 50 | 329 | 1.0 | 0.0 | 0.00 | 0.00 | 0.55 | 89 | 1013.6 |
| 20260506210048 | 50 | 334 | 0.0 | 0.0 | 0.00 | 0.00 | 0.55 | 89 | 1013.5 |
| 20260506204548 | 50 | 334 | 0.0 | 0.0 | 0.00 | 0.00 | 0.55 | 89 | 1013.5 |
| 20260506203047 | 50 | 300 | 0.0 | 0.0 | 0.00 | 0.00 | 0.55 | 89 | 1013.2 |
| 20260506201543 | 50 | 308 | 0.0 | 0.0 | 0.00 | 0.00 | 0.55 | 89 | 1013.0 |
| 20260506194540 | 50 | 346 | 0.0 | 0.0 | 0.00 | 0.00 | 0.55 | 89 | 1012.6 |
| 20260506193040 | 51 | 333 | 0.0 | 0.0 | 0.00 | 0.00 | 0.55 | 90 | 1012.4 |
| 20260506191536 | 51 | 333 | 1.0 | 0.0 | 0.00 | 0.00 | 0.55 | 89 | 1012.1 |
| 20260506190035 | 51 | 13 | 2.0 | 0.0 | 0.00 | 0.00 | 0.55 | 90 | 1012.0 |
| 20260506184530 | 51 | 355 | 1.0 | 0.0 | 0.00 | 0.00 | 0.55 | 90 | 1011.5 |
| 20260506183030 | 52 | 360 | 0.0 | 0.0 | 0.00 | 0.00 | 0.55 | 90 | 1011.3 |
| 20260506181531 | 52 | 360 | 0.0 | 0.0 | 0.00 | 0.00 | 0.55 | 90 | 1011.0 |
| 20260506180033 | 52 | 344 | 1.0 | 0.0 | 0.00 | 0.00 | 0.55 | 91 | 1010.9 |
| 20260506174526 | 52 | 307 | 2.0 | 0.0 | 0.00 | 0.00 | 0.55 | 91 | 1010.8 |
| 20260506173021 | 52 | 37 | 2.0 | 0.0 | 0.00 | 0.00 | 0.55 | 91 | 1010.7 |
| 20260506171535 | 53 | 26 | 2.0 | 0.0 | 0.00 | 0.00 | 0.55 | 91 | 1010.7 |
| 20260506170018 | 53 | 5 | 2.0 | 0.0 | 0.00 | 0.00 | 0.55 | 91 | 1010.5 |
| 20260506164516 | 54 | 340 | 1.0 | 0.0 | 0.00 | 0.00 | 0.55 | 90 | 1010.6 |
| 20260506163021 | 54 | 351 | 1.0 | 0.0 | 0.00 | 0.00 | 0.54 | 91 | 1010.4 |
| 20260506161521 | 55 | 347 | 1.0 | 0.0 | 0.00 | 0.00 | 0.51 | 90 | 1010.4 |
| 20260506160015 | 55 | 338 | 0.0 | 0.0 | 0.00 | 0.00 | 0.51 | 90 | 1010.2 |
| 20260506154513 | 55 | 227 | 1.0 | 0.0 | 0.00 | 0.00 | 0.50 | 90 | 1010.1 |
| 20260506153012 | 56 | 224 | 0.0 | 0.0 | 0.00 | 0.00 | 0.47 | 90 | 1010.2 |
| 20260506151512 | 56 | 223 | 0.0 | 0.0 | 0.00 | 0.00 | 0.46 | 90 | 1010.0 |
| 20260506150011 | 57 | 224 | 0.0 | 0.0 | 0.00 | 0.00 | 0.45 | 90 | 1009.9 |
| 20260506144511 | 57 | 224 | 0.0 | 0.0 | 0.00 | 0.00 | 0.43 | 88 | 1009.8 |
| 20260506143011 | 58 | 224 | 1.0 | 0.0 | 0.00 | 0.00 | 0.40 | 87 | 1009.8 |
| 20260506141510 | 59 | 221 | 0.0 | 0.0 | 0.00 | 0.00 | 0.38 | 87 | 1009.6 |
| 20260506140010 | 59 | 221 | 1.0 | 0.0 | 0.00 | 0.00 | 0.38 | 84 | 1009.5 |
| 20260506134519 | 60 | 228 | 0.0 | 0.0 | 0.00 | 0.00 | 0.28 | 80 | 1009.4 |
| 20260506133008 | 60 | 228 | 0.0 | 0.0 | 0.00 | 0.00 | 0.28 | 79 | 1009.5 |
| 20260506131509 | 60 | 228 | 0.0 | 0.0 | 0.00 | 0.00 | 0.28 | 79 | 1009.5 |
| 20260506130009 | 61 | 247 | 3.0 | 0.0 | 0.00 | 0.00 | 0.28 | 75 | 1009.5 |
| 20260506124511 | 61 | 227 | 4.0 | 0.0 | 0.00 | 0.00 | 0.28 | 73 | 1009.3 |
| 20260506123007 | 61 | 271 | 5.0 | 0.0 | 0.00 | 0.00 | 0.28 | 72 | 1009.3 |
| 20260506121509 | 61 | 237 | 4.0 | 0.0 | 0.00 | 0.00 | 0.28 | 70 | 1009.3 |
| 20260506120010 | 62 | 245 | 3.0 | 0.0 | 0.00 | 0.00 | 0.28 | 69 | 1009.2 |
| 20260506114504 | 62 | 225 | 7.0 | 0.0 | 0.00 | 0.00 | 0.28 | 68 | 1009.1 |
| 20260506113005 | 63 | 227 | 7.0 | 0.0 | 0.00 | 0.00 | 0.28 | 67 | 1009.1 |
| 20260506111622 | 63 | 236 | 7.0 | 0.0 | 0.00 | 0.00 | 0.28 | 68 | 1009.2 |
| 20260506110057 | 62 | 210 | 7.0 | 0.0 | 0.00 | 0.00 | 0.28 | 69 | 1009.4 |
| 20260506104603 | 62 | 211 | 6.0 | 0.0 | 0.00 | 0.00 | 0.28 | 72 | 1009.5 |
| 20260506103059 | 61 | 232 | 8.0 | 0.0 | 0.00 | 0.00 | 0.28 | 72 | 1009.4 |
| 20260506101551 | 60 | 220 | 3.0 | 0.0 | 0.00 | 0.00 | 0.28 | 76 | 1009.7 |
| 20260506100049 | 59 | 214 | 4.0 | 0.0 | 0.00 | 0.00 | 0.28 | 77 | 1009.6 |
| 20260506094547 | 59 | 207 | 5.0 | 0.0 | 0.00 | 0.00 | 0.28 | 77 | 1009.6 |
| 20260506093052 | 59 | 225 | 5.0 | 0.0 | 0.00 | 0.00 | 0.28 | 78 | 1009.6 |
| 20260506091546 | 59 | 225 | 5.0 | 0.0 | 0.00 | 0.00 | 0.28 | 78 | 1009.5 |
| 20260506090044 | 59 | 227 | 5.0 | 0.0 | 0.00 | 0.00 | 0.28 | 78 | 1009.4 |
| 20260506084544 | 59 | 229 | 5.0 | 0.0 | 0.00 | 0.00 | 0.28 | 77 | 1009.3 |
| 20260506083059 | 59 | 199 | 9.0 | 0.0 | 0.00 | 0.00 | 0.28 | 77 | 1009.3 |
| 20260506081547 | 59 | 215 | 5.0 | 0.0 | 0.00 | 0.00 | 0.28 | 83 | 1009.1 |
| 20260506073035 | 57 | 207 | 5.0 | 0.0 | 0.00 | 0.00 | 0.28 | 90 | 1009.3 |
| 20260506071534 | 56 | 207 | 3.0 | 0.0 | 0.00 | 0.00 | 0.28 | 91 | 1009.3 |
| 20260506061536 | 55 | 217 | 4.0 | 0.0 | 0.00 | 0.00 | 0.28 | 93 | 1009.2 |